When you browse on this site, cookies collect data to enhance your experience and personalize the content and advertising you see.
Visit our Privacy Policy to learn more. By continuing to use the site, you agree to this use of cookies and data.
  • In Italy
  • List of Countries
  • For 7 days
  • Water Temperature
  • Satellite Maps
  • Weather Map
  • Weather Widgets
  • user-avatar
    Login

    Hourly Weather Elbasan

    Today, 18 June, Tuesday

    Time Temperature Precipitation Wind Pressure Humidity
    00:00 +22°C° 0.1 mm 1 mps 734 mmHg 76%
    01:00 +21°C° 0 mm 1 mps 734 mmHg 76%
    02:00 +21°C° 0.3 mm 1 mps 734 mmHg 76%
    03:00 +21°C° 0.3 mm 1 mps 734 mmHg 77%
    04:00 +21°C° 0.3 mm 1 mps 734 mmHg 77%
    05:00 +22°C° 0.1 mm 1 mps 734 mmHg 73%
    06:00 +24°C° 0.1 mm 1 mps 735 mmHg 69%
    07:00 +25°C° 0.1 mm 1 mps 735 mmHg 65%
    08:00 +27°C° 0 mm 1 mps 735 mmHg 60%
    09:00 +28°C° 0 mm 1 mps 735 mmHg 54%
    10:00 +30°C° 0 mm 1 mps 735 mmHg 48%
    11:00 +30°C° 0 mm 2 mps 735 mmHg 46%
    12:00 +31°C° 0 mm 2 mps 735 mmHg 43%
    13:00 +31°C° 0 mm 3 mps 734 mmHg 41%
    14:00 +31°C° 0 mm 3 mps 734 mmHg 45%
    15:00 +30°C° 0 mm 3 mps 734 mmHg 49%
    16:00 +30°C° 0 mm 3 mps 734 mmHg 53%
    17:00 +28°C° 0.1 mm 2 mps 734 mmHg 62%
    18:00 +26°C° 0.1 mm 1 mps 734 mmHg 71%
    19:00 +22°C° 0.1 mm 0 mps 734 mmHg 79%
    20:00 +21°C° 0 mm 0 mps 734 mmHg 80%
    21:00 +23°C° 0 mm 1 mps 734 mmHg 80%
    22:00 +22°C° 0 mm 1 mps 734 mmHg 80%
    23:00 +22°C° 0 mm 1 mps 734 mmHg 78%

    Tomorrow, 19 June, Wednesday

    Time Temperature Precipitation Wind Pressure Humidity
    00:00 +21°C° 0 mm 1 mps 734 mmHg 76%
    01:00 +21°C° 0 mm 1 mps 734 mmHg 74%
    02:00 +21°C° 0 mm 1 mps 733 mmHg 73%
    03:00 +20°C° 0 mm 1 mps 733 mmHg 71%
    04:00 +20°C° 0 mm 1 mps 733 mmHg 70%
    05:00 +22°C° 0 mm 1 mps 733 mmHg 66%
    06:00 +22°C° 0 mm 0 mps 733 mmHg 62%
    07:00 +23°C° 0 mm 0 mps 734 mmHg 58%
    08:00 +25°C° 0 mm 0 mps 734 mmHg 54%
    09:00 +28°C° 0 mm 1 mps 734 mmHg 51%
    10:00 +29°C° 0 mm 1 mps 734 mmHg 47%
    11:00 +30°C° 0.1 mm 2 mps 733 mmHg 46%
    12:00 +30°C° 0.1 mm 2 mps 733 mmHg 46%
    13:00 +30°C° 0.1 mm 3 mps 733 mmHg 45%
    14:00 +30°C° 0.1 mm 3 mps 733 mmHg 50%
    15:00 +29°C° 0.1 mm 3 mps 733 mmHg 55%
    16:00 +29°C° 0.1 mm 3 mps 732 mmHg 60%
    17:00 +27°C° 0.3 mm 2 mps 732 mmHg 68%
    18:00 +25°C° 0.3 mm 2 mps 732 mmHg 76%
    19:00 +24°C° 0.3 mm 1 mps 732 mmHg 84%
    20:00 +23°C° 0 mm 1 mps 732 mmHg 85%
    21:00 +22°C° 0 mm 1 mps 733 mmHg 86%
    22:00 +20°C° 0 mm 0 mps 733 mmHg 88%
    23:00 +19°C° 0 mm 0 mps 733 mmHg 88%

    Day after tomorrow, 20 June, Thursday

    Time Temperature Precipitation Wind Pressure Humidity
    00:00 +19°C° 0 mm 0 mps 733 mmHg 88%
    01:00 +19°C° 0 mm 0 mps 732 mmHg 88%
    02:00 +18°C° 0 mm 0 mps 732 mmHg 88%
    03:00 +18°C° 0 mm 0 mps 732 mmHg 88%
    04:00 +20°C° 0 mm 1 mps 732 mmHg 88%
    05:00 +19°C° 0 mm 0 mps 733 mmHg 82%
    06:00 +21°C° 0 mm 0 mps 733 mmHg 75%
    07:00 +23°C° 0 mm 0 mps 733 mmHg 68%
    08:00 +26°C° 0 mm 1 mps 733 mmHg 63%
    09:00 +27°C° 0 mm 1 mps 733 mmHg 57%
    10:00 +28°C° 0 mm 2 mps 733 mmHg 51%
    11:00 +29°C° 0 mm 2 mps 733 mmHg 50%
    12:00 +30°C° 0 mm 3 mps 733 mmHg 48%
    13:00 +30°C° 0 mm 3 mps 733 mmHg 47%
    14:00 +30°C° 0 mm 3 mps 733 mmHg 50%
    15:00 +29°C° 0 mm 3 mps 733 mmHg 52%
    16:00 +29°C° 0 mm 3 mps 733 mmHg 55%
    17:00 +27°C° 0 mm 2 mps 733 mmHg 63%
    18:00 +25°C° 0 mm 1 mps 733 mmHg 72%
    19:00 +21°C° 0 mm 0 mps 733 mmHg 80%
    20:00 +23°C° 0 mm 1 mps 733 mmHg 81%
    21:00 +22°C° 0 mm 1 mps 733 mmHg 83%
    22:00 +22°C° 0 mm 1 mps 733 mmHg 84%
    23:00 +21°C° 0 mm 1 mps 733 mmHg 83%

    21 June, Friday

    Time Temperature Precipitation Wind Pressure Humidity
    00:00 +21°C° 0 mm 1 mps 733 mmHg 81%
    01:00 +19°C° 0 mm 0 mps 733 mmHg 80%
    02:00 +19°C° 0 mm 0 mps 733 mmHg 80%
    03:00 +18°C° 0 mm 0 mps 733 mmHg 80%
    04:00 +18°C° 0 mm 0 mps 733 mmHg 80%
    05:00 +20°C° 0 mm 0 mps 734 mmHg 75%
    06:00 +22°C° 0 mm 0 mps 734 mmHg 70%
    07:00 +23°C° 0 mm 0 mps 734 mmHg 65%
    08:00 +27°C° 0 mm 1 mps 734 mmHg 61%
    09:00 +28°C° 0 mm 1 mps 734 mmHg 58%
    10:00 +29°C° 0 mm 1 mps 734 mmHg 54%
    11:00 +30°C° 0.1 mm 2 mps 734 mmHg 53%
    12:00 +31°C° 0.1 mm 2 mps 734 mmHg 53%
    13:00 +31°C° 0.1 mm 3 mps 734 mmHg 52%
    14:00 +31°C° 0.1 mm 2 mps 734 mmHg 55%
    15:00 +30°C° 0.1 mm 2 mps 734 mmHg 58%
    16:00 +30°C° 0.1 mm 2 mps 734 mmHg 60%
    17:00 +28°C° 0 mm 2 mps 734 mmHg 67%
    18:00 +26°C° 0 mm 1 mps 734 mmHg 74%
    19:00 +23°C° 0 mm 0 mps 734 mmHg 81%
    20:00 +22°C° 0 mm 0 mps 734 mmHg 83%
    21:00 +24°C° 0 mm 1 mps 734 mmHg 85%
    22:00 +23°C° 0 mm 1 mps 734 mmHg 86%
    23:00 +23°C° 0 mm 1 mps 734 mmHg 86%

    22 June, Saturday

    Time Temperature Precipitation Wind Pressure Humidity
    00:00 +23°C° 0 mm 1 mps 734 mmHg 85%
    01:00 +22°C° 0 mm 1 mps 734 mmHg 85%
    02:00 +22°C° 0 mm 1 mps 734 mmHg 84%
    03:00 +22°C° 0 mm 1 mps 734 mmHg 84%
    04:00 +22°C° 0 mm 1 mps 734 mmHg 83%
    05:00 +24°C° 0 mm 1 mps 734 mmHg 77%
    06:00 +25°C° 0 mm 1 mps 735 mmHg 71%
    07:00 +25°C° 0 mm 0 mps 735 mmHg 64%
    08:00 +29°C° 0 mm 1 mps 735 mmHg 58%
    09:00 +31°C° 0 mm 1 mps 735 mmHg 52%
    10:00 +32°C° 0 mm 1 mps 735 mmHg 46%
    11:00 +33°C° 0 mm 1 mps 735 mmHg 44%
    12:00 +34°C° 0 mm 2 mps 735 mmHg 42%
    13:00 +35°C° 0 mm 2 mps 735 mmHg 40%
    14:00 +35°C° 0 mm 2 mps 735 mmHg 42%
    15:00 +34°C° 0 mm 2 mps 735 mmHg 44%
    16:00 +34°C° 0 mm 3 mps 735 mmHg 45%
    17:00 +31°C° 0 mm 2 mps 735 mmHg 54%
    18:00 +29°C° 0 mm 1 mps 735 mmHg 63%
    19:00 +25°C° 0 mm 0 mps 735 mmHg 71%
    20:00 +24°C° 0 mm 0 mps 735 mmHg 71%
    21:00 +26°C° 0 mm 1 mps 735 mmHg 71%
    22:00 +25°C° 0 mm 1 mps 736 mmHg 71%
    23:00 +25°C° 0 mm 1 mps 735 mmHg 68%

    23 June, Sunday

    Time Temperature Precipitation Wind Pressure Humidity
    00:00 +25°C° 0 mm 1 mps 735 mmHg 66%
    01:00 +24°C° 0 mm 1 mps 735 mmHg 64%
    02:00 +24°C° 0 mm 1 mps 735 mmHg 62%
    03:00 +24°C° 0 mm 1 mps 735 mmHg 60%
    04:00 +24°C° 0 mm 1 mps 735 mmHg 58%
    05:00 +26°C° 0 mm 1 mps 735 mmHg 54%
    06:00 +28°C° 0 mm 1 mps 736 mmHg 51%
    07:00 +30°C° 0 mm 1 mps 736 mmHg 47%
    08:00 +31°C° 0 mm 1 mps 736 mmHg 44%
    09:00 +32°C° 0 mm 2 mps 737 mmHg 40%
    10:00 +35°C° 0 mm 2 mps 737 mmHg 37%
    11:00 +35°C° 0 mm 2 mps 737 mmHg 37%
    12:00 +35°C° 0 mm 3 mps 737 mmHg 38%
    13:00 +35°C° 0 mm 3 mps 736 mmHg 39%
    14:00 +35°C° 0 mm 3 mps 736 mmHg 41%
    15:00 +34°C° 0 mm 2 mps 736 mmHg 43%
    16:00 +34°C° 0 mm 2 mps 736 mmHg 45%
    17:00 +31°C° 0 mm 2 mps 736 mmHg 52%
    18:00 +28°C° 0 mm 1 mps 736 mmHg 59%
    19:00 +24°C° 0 mm 0 mps 736 mmHg 67%
    20:00 +26°C° 0 mm 1 mps 736 mmHg 66%
    21:00 +25°C° 0 mm 1 mps 736 mmHg 65%
    22:00 +25°C° 0 mm 1 mps 736 mmHg 65%
    23:00 +24°C° 0 mm 1 mps 736 mmHg 63%
    Show more